Wind_Speed
29 24 17 20 23 26 27 27 29 25 24 20 15 14 15 15 16 18 15 14 18 16 18 20 20 24 23 23 24 24 24 25 26 25 27 29 31 32 32 33 31 33 30 35
31 25 25 23 21 22 23 24 26 26 26 20 19 17 18 17 16 20 24 21 19 21 23 28 26 30 27 28 28 28 28 27 28 29 31 33 33 34 33 32 30 31 31 32
30 27 27 31 28 25 23 24 23 25 21 18 18 18 19 19 22 23 26 25 24 26 29 28 28 29 30 29 29 29 32 32 32 33 33 34 33 31 31 32 30 27 29 33
20 20 16 21 21 21 23 23 21 22 21 21 20 21 24 23 26 29 28 29 30 31 33 31 30 29 27 27 28 27 27 27 28 29 29 29 30 32 30 28 30 32 32 31
21 23 21 21 25 24 21 22 21 23 23 21 21 22 27 25 22 26 26 28 27 26 23 22 21 19 19 19 21 23 25 26 27 28 30 31 32 31 28 29 30 29 30 31
16 22 19 27 25 18 17 25 22 20 19 20 20 22 18 21 20 20 21 21 20 19 19 19 18 18 20 21 23 25 26 26 27 28 29 30 28 27 27 27 29 30 29 29
25 15 17 20 20 18 19 24 11 15 15 17 18 17 19 19 22 22 20 20 20 22 22 20 19 20 22 24 25 26 26 26 27 27 28 28 27 25 27 30 30 28 28 28
21 18 16 18 20 24 23 15 14 13 14 17 21 21 20 20 23 23 22 22 25 25 23 22 22 23 23 24 24 24 25 26 26 26 25 25 26 29 30 28 28 28 29 30
16 15 19 19 25 22 21 18 16 17 16 20 22 23 23 21 22 23 24 26 27 27 25 24 23 23 24 25 25 25 25 26 26 25 25 27 29 27 27 27 27 30 31 32
20 15 16 15 16 15 14 16 20 21 20 22 21 25 27 24 24 25 27 29 29 28 26 25 25 24 24 26 27 26 26 26 25 25 27 27 26 26 28 27 30 31 33 35
31 32 32 27 20 20 24 23 23 22 23 26 28 28 29 26 26 27 28 30 30 29 29 28 27 27 27 28 28 28 28 27 27 28 27 26 27 28 29 29 31 33 35 37
25 18 22 23 23 30 26 25 28 26 28 31 32 29 27 27 28 29 31 31 32 32 32 31 30 29 29 30 31 31 30 29 28 26 26 27 28 29 29 32 33 34 36 38
24 25 27 24 21 24 22 24 27 28 30 31 29 27 27 29 30 32 34 34 35 35 34 34 34 33 32 32 31 31 31 28 26 25 25 27 29 30 34 34 33 36 37 39
27 25 25 28 31 30 31 30 30 32 31 28 27 28 30 31 32 36 38 38 38 38 38 38 38 37 37 35 32 28 25 25 24 24 26 28 30 31 33 34 37 40 41 39
19 21 26 27 28 28 30 30 30 29 27 26 29 32 33 34 37 40 42 42 41 42 42 42 40 40 37 33 28 26 21 21 22 25 27 30 31 33 34 35 36 38 39 41
25 26 26 28 27 28 31 32 33 32 29 30 31 34 37 40 43 44 44 44 43 43 42 41 38 33 31 28 24 23 22 22 23 27 30 31 33 34 35 35 37 39 40 42
20 22 22 23 26 28 30 31 30 29 30 31 29 33 39 44 45 43 39 37 37 37 35 32 29 26 23 23 23 23 22 23 27 30 32 33 34 35 36 37 39 40 42 44
24 23 24 27 27 28 25 27 28 28 28 30 30 27 28 29 31 31 32 32 30 26 24 24 23 23 23 23 23 23 25 28 30 32 34 34 36 37 38 40 41 43 44 45
31 25 25 26 25 21 19 18 20 19 16 17 20 22 23 23 23 21 20 21 21 21 22 23 23 24 23 23 24 27 30 32 34 35 36 38 40 40 42 43 44 45 45 46
30 30 31 24 15 10 11 13 14 16 16 16 15 15 14 15 16 16 17 18 20 22 22 22 23 24 25 27 30 33 34 37 38 40 41 42 43 44 45 46 46 46 46 45
26 25 15 10 11 10 8 7 8 8 7 7 7 8 9 11 13 16 18 17 18 20 22 24 25 26 29 32 36 38 40 42 43 44 45 46 46 46 46 46 46 46 45 43
9 9 7 5 3 4 6 6 4 3 3 3 4 7 11 12 13 14 16 18 21 23 25 26 29 33 36 38 41 43 44 46 46 47 47 47 47 46 46 46 45 43 42 40
6 5 3 3 3 2 3 3 2 1 2 4 7 9 11 13 15 18 20 24 25 28 31 33 37 39 42 44 46 47 47 48 48 48 47 47 47 46 45 43 42 40 39 37
5 6 6 7 6 4 3 1 2 4 7 8 10 12 15 18 21 24 27 29 32 35 38 40 43 44 45 46 47 47 48 48 49 49 47 46 44 42 41 40 38 37 35 33
10 9 7 5 3 1 2 5 7 9 11 13 15 18 21 24 27 29 32 34 37 39 43 42 44 45 47 48 49 49 49 48 46 45 43 42 40 39 37 36 34 33 32 31
8 5 3 2 2 4 5 7 9 12 14 17 19 22 25 27 30 33 35 37 40 42 44 46 48 48 48 49 48 48 46 44 42 41 39 37 36 34 33 32 31 30 30 29
5 3 1 2 4 7 9 11 13 16 19 22 24 26 29 32 35 37 39 41 42 44 45 46 47 48 48 46 45 44 42 41 39 37 35 34 32 31 30 30 29 29 28 27
Wind_Direction
226 227 226 221 224 229 233 239 244 254 258 268 268 276 272 273 247 241 252 257 254 242 246 259 256 248 243 238 241 247 252 252 256 264 271 276 278 278 277 278 277 276 280 277
232 227 232 235 234 234 239 241 248 253 257 258 272 279 271 262 260 258 249 255 258 260 247 261 260 254 252 248 246 251 254 257 261 268 270 277 276 275 275 274 275 276 280 290
230 231 235 239 234 240 243 244 246 250 258 265 269 270 273 270 255 260 261 259 257 258 262 267 266 263 253 250 251 254 258 265 268 270 272 274 272 273 275 278 279 283 283 288
218 225 231 233 236 240 247 247 246 252 261 262 269 278 264 269 266 268 259 255 261 259 264 262 262 261 254 250 251 255 260 265 269 273 274 272 273 278 278 281 277 285 287 288
210 222 239 239 233 234 240 248 252 259 260 262 275 271 281 281 268 271 267 263 261 261 257 254 247 244 250 258 266 272 277 279 278 277 276 277 279 281 279 276 280 282 287 290
207 230 238 239 242 244 248 258 253 257 259 266 265 272 290 276 272 272 269 262 251 243 238 237 244 254 264 274 280 280 277 274 273 273 274 277 278 278 277 279 284 288 289 290
219 236 244 237 233 228 221 247 269 252 254 257 255 273 297 287 271 268 262 247 237 233 236 244 254 264 272 274 273 271 271 272 275 278 280 279 279 279 283 286 286 287 288 290
221 235 232 219 221 214 252 275 258 257 260 269 268 277 294 284 271 266 252 239 234 236 244 252 260 267 271 271 272 271 272 276 278 280 277 276 280 286 285 284 285 287 291 294
223 234 236 240 241 249 252 251 259 270 267 280 285 280 289 285 274 262 245 237 237 243 250 258 266 272 274 274 272 274 278 281 281 279 279 282 284 280 280 284 289 293 296 299
251 249 249 245 234 240 250 269 276 270 271 278 280 278 282 279 270 256 245 240 243 248 253 258 268 272 271 271 271 273 278 282 280 277 281 281 278 282 286 290 294 297 299 301
251 253 255 254 248 258 275 272 275 270 272 274 282 275 275 272 263 251 245 242 248 252 258 261 266 268 269 269 270 278 282 282 281 280 280 279 282 287 289 294 296 298 300 302
252 267 257 262 263 273 262 262 263 260 271 278 283 269 272 267 257 248 245 247 252 256 257 259 261 262 263 264 272 280 281 279 275 275 278 282 286 288 292 296 297 299 302 303
252 251 251 254 254 257 264 258 260 265 273 277 275 259 260 256 252 248 246 250 254 255 255 256 257 258 260 256 266 269 267 266 269 275 281 285 290 293 297 298 298 301 304 304
249 250 255 254 255 260 266 269 270 273 274 276 260 258 254 251 251 245 245 249 252 253 252 252 253 254 254 250 253 252 257 265 273 279 285 289 293 295 298 301 304 307 307 307
246 244 245 255 262 266 268 270 272 276 270 266 256 257 249 245 244 244 246 250 251 251 252 251 250 248 242 243 248 257 267 274 280 286 291 294 296 299 301 303 305 306 308 309
250 247 246 259 261 264 270 274 278 280 278 264 258 252 246 240 241 245 247 249 250 251 248 243 241 245 254 263 268 273 275 281 291 294 294 296 298 300 302 304 305 307 308 308
243 241 247 256 262 269 274 274 273 270 268 262 257 251 249 249 249 249 247 247 247 246 247 255 260 259 269 274 275 278 289 296 293 293 295 297 299 300 302 303 305 306 307 308
229 238 246 263 268 266 266 274 278 276 267 263 260 257 255 254 255 254 253 250 247 247 252 261 270 274 274 276 284 295 295 291 291 293 296 297 298 299 301 303 305 306 306 306
252 256 267 264 263 269 275 279 273 258 257 259 261 264 260 252 248 249 251 253 258 267 273 274 274 276 283 293 297 293 289 291 293 295 296 298 298 300 302 303 304 304 304 304
253 254 260 254 243 265 275 270 260 262 259 259 264 268 266 256 252 253 259 267 272 275 276 279 285 292 297 294 290 289 290 292 294 295 296 298 299 300 301 302 303 303 303 303
236 246 225 226 242 260 266 263 264 267 269 256 246 242 249 262 268 270 274 280 283 285 289 294 298 295 292 290 291 293 293 294 294 295 296 297 298 299 300 301 301 301 301 301
185 186 184 182 233 261 256 246 234 235 244 258 274 276 275 277 283 287 287 289 292 295 297 296 295 294 294 294 294 294 294 294 296 297 298 299 299 299 300 301 300 300 300 301
173 184 198 195 184 172 144 121 96 31 313 294 286 287 289 288 288 290 295 297 298 297 295 295 295 295 295 295 295 296 297 297 298 298 299 299 300 300 300 300 300 300 300 300
168 159 154 145 141 130 109 94 302 291 288 291 292 290 289 291 294 297 298 298 298 298 298 298 297 297 297 298 298 298 299 299 299 300 300 300 300 300 300 300 299 299 299 299
148 149 142 133 131 154 285 293 291 291 292 291 291 292 294 296 297 299 299 299 299 299 299 299 299 300 300 300 300 300 301 301 301 301 300 300 299 299 299 299 299 299 299 299
145 149 151 180 264 288 292 294 294 294 295 296 298 299 300 301 301 302 302 302 302 302 301 302 303 303 303 303 303 302 302 302 301 301 300 299 299 299 299 299 299 299 299 299
167 177 203 277 294 295 295 297 301 302 302 303 303 304 306 306 305 305 304 305 305 305 306 306 305 305 304 304 303 303 302 302 301 300 300 299 299 299 299 299 298 298 299 300
Height
3055 3057 3058 3060 3063 3066 3067 3068 3068 3070 3069 3070 3071 3071 3071 3071 3071 3071 3073 3073 3074 3076 3072 3073 3073 3072 3073 3074 3075 3075 3075 3076 3075 3075 3075 3074 3073 3072 3070 3068 3066 3063 3060 3059
3050 3053 3054 3055 3057 3059 3060 3062 3063 3064 3064 3066 3066 3066 3067 3067 3067 3066 3067 3068 3069 3069 3067 3066 3067 3065 3069 3069 3069 3069 3069 3069 3070 3069 3068 3067 3065 3064 3062 3060 3057 3055 3053 3050
3043 3048 3050 3048 3051 3054 3056 3057 3058 3059 3061 3062 3062 3062 3062 3062 3061 3061 3060 3062 3063 3062 3061 3060 3060 3059 3061 3063 3064 3064 3064 3062 3062 3061 3060 3058 3057 3055 3054 3052 3049 3048 3046 3044
3041 3044 3041 3044 3048 3050 3051 3052 3053 3054 3056 3056 3057 3056 3054 3054 3055 3052 3053 3053 3054 3054 3054 3053 3053 3053 3054 3056 3056 3056 3056 3055 3054 3054 3052 3051 3050 3048 3045 3044 3043 3041 3038 3036
3034 3035 3038 3038 3041 3044 3046 3047 3048 3048 3049 3050 3051 3047 3047 3046 3046 3044 3044 3045 3045 3046 3047 3047 3048 3048 3049 3050 3050 3050 3049 3048 3047 3046 3045 3043 3042 3040 3038 3037 3035 3034 3031 3029
3030 3030 3028 3035 3038 3039 3042 3039 3042 3043 3043 3045 3043 3043 3043 3039 3039 3039 3039 3039 3040 3041 3042 3044 3045 3045 3045 3044 3044 3043 3042 3041 3040 3039 3037 3036 3034 3032 3031 3030 3028 3026 3023 3021
3024 3024 3023 3028 3031 3034 3036 3037 3037 3037 3038 3039 3039 3038 3036 3034 3034 3034 3034 3034 3035 3037 3038 3039 3040 3039 3039 3038 3037 3036 3035 3035 3034 3032 3030 3028 3027 3025 3024 3022 3019 3017 3016 3013
3020 3020 3021 3022 3025 3027 3028 3030 3031 3032 3033 3033 3031 3031 3030 3029 3028 3027 3028 3029 3030 3032 3032 3033 3033 3032 3032 3032 3031 3030 3029 3028 3026 3025 3023 3021 3019 3018 3016 3014 3012 3009 3007 3004
3014 3015 3017 3017 3021 3022 3024 3025 3026 3026 3027 3026 3025 3025 3024 3023 3023 3022 3023 3024 3025 3026 3027 3027 3027 3026 3025 3024 3024 3022 3021 3020 3018 3017 3016 3014 3012 3010 3007 3006 3003 3000 2997 2995
3009 3009 3011 3012 3015 3016 3018 3019 3019 3020 3020 3019 3019 3019 3018 3016 3016 3016 3016 3017 3019 3019 3020 3020 3020 3020 3019 3018 3016 3015 3013 3011 3010 3009 3008 3006 3004 3002 2999 2997 2994 2991 2988 2985
2999 3002 3005 3006 3008 3011 3010 3011 3013 3013 3013 3013 3012 3012 3011 3010 3009 3009 3010 3011 3012 3012 3013 3013 3012 3012 3011 3010 3008 3007 3005 3003 3002 3001 2999 2997 2996 2994 2992 2990 2986 2982 2978 2975
2993 2997 2997 2999 3001 3002 3004 3005 3006 3006 3006 3004 3004 3004 3004 3003 3003 3003 3004 3005 3005 3005 3005 3004 3004 3003 3002 3002 3000 2999 2997 2995 2993 2992 2991 2989 2987 2985 2985 2980 2977 2974 2970 2965
2989 2990 2992 2993 2995 2995 2996 2997 2997 2997 2997 2996 2995 2995 2995 2995 2996 2996 2996 2996 2996 2996 2996 2995 2995 2994 2993 2992 2991 2989 2988 2986 2985 2984 2982 2982 2979 2977 2972 2971 2969 2964 2959 2954
2980 2983 2985 2985 2986 2988 2988 2989 2989 2989 2988 2986 2987 2987 2987 2987 2987 2987 2987 2987 2987 2987 2986 2985 2984 2983 2982 2980 2979 2979 2978 2978 2977 2976 2974 2973 2971 2968 2965 2962 2957 2951 2947 2945
2974 2975 2977 2978 2979 2979 2980 2980 2980 2980 2979 2978 2978 2978 2978 2978 2978 2978 2977 2977 2977 2976 2975 2974 2974 2973 2971 2969 2969 2970 2971 2970 2969 2968 2966 2964 2962 2959 2955 2951 2948 2944 2938 2932
2968 2970 2971 2971 2971 2971 2972 2972 2971 2971 2972 2971 2970 2969 2969 2968 2967 2967 2967 2966 2966 2966 2965 2964 2963 2964 2966 2965 2965 2964 2963 2963 2961 2960 2958 2955 2952 2949 2945 2941 2937 2933 2927 2922
2962 2963 2964 2964 2965 2965 2965 2964 2964 2963 2963 2963 2962 2961 2960 2959 2959 2960 2960 2959 2958 2958 2958 2959 2961 2961 2960 2960 2959 2957 2956 2956 2954 2952 2949 2945 2942 2938 2934 2930 2926 2921 2916 2910
2954 2956 2957 2958 2958 2957 2957 2957 2956 2956 2955 2954 2955 2955 2955 2955 2955 2954 2953 2953 2954 2955 2954 2955 2956 2955 2954 2953 2951 2950 2949 2947 2945 2942 2938 2935 2932 2928 2924 2920 2915 2910 2905 2899
2948 2949 2950 2950 2951 2951 2950 2950 2949 2949 2949 2950 2951 2951 2951 2951 2951 2951 2952 2953 2953 2953 2952 2951 2950 2948 2947 2946 2944 2943 2941 2938 2935 2931 2928 2925 2921 2918 2913 2908 2903 2898 2893 2887
2941 2942 2943 2944 2944 2944 2944 2945 2945 2945 2945 2945 2947 2948 2949 2949 2950 2950 2950 2950 2949 2948 2947 2945 2944 2943 2941 2939 2937 2934 2931 2928 2925 2921 2917 2914 2909 2905 2901 2896 2891 2886 2880 2875
2934 2936 2937 2938 2939 2940 2940 2941 2942 2943 2943 2944 2945 2946 2948 2948 2949 2949 2948 2946 2945 2944 2942 2940 2938 2936 2934 2931 2928 2925 2922 2918 2914 2910 2905 2901 2897 2892 2887 2883 2878 2873 2867 2863
2930 2932 2934 2935 2936 2937 2939 2940 2940 2941 2943 2943 2945 2945 2946 2946 2946 2945 2943 2942 2940 2938 2935 2933 2931 2928 2925 2921 2917 2914 2910 2906 2901 2897 2892 2888 2883 2878 2874 2869 2864 2860 2855 2851
2929 2931 2933 2934 2935 2936 2937 2939 2941 2942 2942 2943 2943 2943 2943 2942 2942 2940 2939 2936 2934 2931 2927 2925 2922 2918 2915 2910 2906 2901 2897 2892 2888 2883 2878 2873 2869 2864 2860 2856 2852 2848 2844 2840
2930 2931 2932 2934 2935 2936 2937 2939 2940 2941 2941 2941 2941 2940 2939 2938 2936 2935 2932 2929 2926 2923 2919 2915 2912 2908 2903 2898 2893 2888 2883 2878 2874 2869 2864 2859 2855 2851 2848 2844 2840 2837 2833 2830
2930 2931 2933 2935 2936 2937 2938 2939 2939 2940 2939 2938 2937 2936 2935 2932 2930 2927 2925 2922 2918 2914 2908 2905 2900 2895 2889 2884 2879 2874 2869 2864 2859 2855 2851 2847 2843 2840 2836 2833 2830 2827 2824 2821
2931 2932 2933 2935 2936 2936 2937 2937 2937 2936 2935 2934 2932 2931 2929 2926 2923 2919 2916 2912 2907 2903 2898 2892 2886 2881 2876 2870 2865 2860 2855 2851 2846 2842 2839 2835 2832 2829 2826 2823 2820 2817 2815 2812
2932 2933 2934 2935 2935 2935 2935 2935 2934 2933 2931 2928 2926 2923 2921 2917 2913 2910 2905 2901 2896 2890 2885 2879 2873 2868 2862 2857 2852 2847 2842 2838 2834 2831 2828 2824 2822 2819 2816 2814 2811 2809 2806 2804